Location: Caltech
(34.1382°N, 118.1253°W)
Time: 18:04:00
(UTC-07:00)

Cosmos 1697 Rocket - Visible Passes

Search period start: 30 July 2015 00:00
Search period end: 09 August 2015 00:00
Orbit: 833 x 843 km, 71.0° (Epoch: 30 July)

Date Brightness Start Highest point End Pass type
(mag) Time Alt. Az. Time Alt. Az. Time Alt. Az.
30 Jul 4.9 05:06:19 10° SSE 05:10:32 23° ESE 05:14:56 10° NE visible
31 Jul 5.0 04:50:27 10° SSE 04:54:27 21° ESE 04:58:40 10° NE visible
01 Aug 5.0 04:34:36 10° SE 04:38:23 19° ESE 04:42:23 10° NE visible
02 Aug 5.1 04:18:47 10° SE 04:22:18 18° ESE 04:26:04 10° ENE visible
03 Aug 5.1 04:03:00 10° SE 04:06:14 16° E 04:09:44 10° ENE visible
04 Aug 5.1 03:47:16 10° SE 03:50:09 15° E 03:53:21 10° ENE visible
04 Aug 2.8 05:28:11 10° SW 05:33:41 58° WNW 05:39:13 10° NNE visible
05 Aug 5.1 03:31:36 10° SE 03:34:05 14° E 03:36:56 10° ENE visible
05 Aug 2.8 05:12:01 10° SSW 05:17:34 63° WNW 05:23:09 10° NNE visible
06 Aug 5.2 03:16:01 10° ESE 03:18:01 12° E 03:20:23 10° ENE visible
06 Aug 2.7 04:56:55 16° SSW 05:01:27 69° WNW 05:07:04 10° NNE visible
07 Aug 5.2 03:00:37 10° ESE 03:01:56 11° E 03:03:42 10° E visible
07 Aug 2.6 04:41:46 23° SSW 04:45:20 75° WNW 04:50:58 10° NNE visible
08 Aug 2.6 04:26:33 32° SSW 04:29:14 81° WNW 04:34:53 10° NNE visible
